Weather History for KAVL - March, 2012

Change the Weather History Date:

Saturday, March 17, 2012

  Actual Average Record
Temperature  
Mean Temperature 62 °F 47 °F  
Max Temperature 74 °F 59 °F 85 °F (1945)
Min Temperature 50 °F 36 °F 17 °F (1890)
Degree Days  
Heating Degree Days 3 18  
Month to date heating degree days 217 334  
Since 1 July heating degree days 3023 3551  
Cooling Degree Days 0 0  
Month to date cooling degree days 0 0  
Year to date cooling degree days 0 0  
Growing Degree Days 12 (Base 50)    
Moisture  
Dew Point 52 °F    
Average Humidity 71    
Maximum Humidity 100    
Minimum Humidity 41    
Precipitation  
Precipitation T in 0.12 in 2.00 in (1980)
Month to date precipitation 1.64 2.09  
Year to date precipitation 7.08 9.52  
Snow  
Snow 0.00 in 0.00 in 5.70 in (1936)
Month to date snowfall T 1.1  
Since 1 July snowfall T 8.4  
Snow Depth 0.00 in    
Sea Level Pressure  
Sea Level Pressure 30.23 in    
Wind  
Wind Speed 3 mph (NW)    
Max Wind Speed 13 mph    
Max Gust Speed 17 mph    
Visibility 6 miles    
Events Rain    
T = Trace of Precipitation, MM = Missing Value Source: NWS Daily Summary

Daily Weather History Graph

Daily Weather History Graph

Search for Another Location

Airport or City:

Trip Planner

Search our weather history database for the weather conditions in past years. The results will help you decide how hot, cold, wet, or windy it might be!

Date:

Astronomy

Mar. 17, 2012 Rise Set
Actual Time 7:37 AM EDT 7:39 PM EDT
Civil Twilight 7:11 AM EDT 8:05 PM EDT
Nautical Twilight 6:42 AM EDT 8:34 PM EDT
Astronomical Twilight 6:12 AM EDT 9:04 PM EDT
Moon 4:28 AM EDT (3/17) 3:11 PM EDT (3/17)
Length of Visible Light 12h 53m
Length of Day
12h 02m
Waning Crescent, 23% of the Moon is Illuminated
Mar 17
Waning Crescent
Mar 22
New
Mar 30
First Quarter
Apr 6
Full
Apr 13
Last Quarter

Hourly Weather History & Observations

Time (EDT) Temp. Dew Point Humidity Pressure Visibility Wind Dir Wind Speed Gust Speed Precip Events Conditions
12:54 AM 54.0 °F 52.0 °F 93% 30.20 in 10.0 mi Calm Calm - N/A   Clear
1:54 AM 53.1 °F 52.0 °F 96% 30.19 in 9.0 mi Calm Calm - N/A   Mostly Cloudy
2:50 AM 51.8 °F 50.0 °F 94% 30.24 in 3.0 mi South 5.8 mph - N/A   Mostly Cloudy
2:52 AM 50.0 °F 50.0 °F 100% 30.24 in 1.2 mi South 4.6 mph - N/A   Mostly Cloudy
2:54 AM 50.0 °F 50.0 °F 100% 30.20 in 0.8 mi South 4.6 mph - N/A   Mostly Cloudy
3:21 AM 51.8 °F 50.0 °F 94% 30.24 in 1.5 mi Calm Calm - N/A   Overcast
3:24 AM 51.8 °F 51.8 °F 100% 30.24 in 3.0 mi Calm Calm - N/A   Overcast
3:54 AM 52.0 °F 51.1 °F 97% 30.19 in 10.0 mi Calm Calm - N/A   Overcast
4:35 AM 51.8 °F 51.8 °F 100% 30.23 in 8.0 mi Calm Calm - N/A   Overcast
4:44 AM 51.8 °F 51.8 °F 100% 30.23 in 6.0 mi Calm Calm - N/A   Mostly Cloudy
4:54 AM 50.0 °F 50.0 °F 100% 30.19 in 2.0 mi Calm Calm - N/A   Overcast
5:05 AM 51.8 °F 50.0 °F 94% 30.24 in 8.0 mi NNW 4.6 mph - N/A   Mostly Cloudy
5:42 AM 51.8 °F 50.0 °F 94% 30.24 in 5.0 mi Calm Calm - N/A   Overcast
5:54 AM 51.1 °F 51.1 °F 100% 30.20 in 2.5 mi Calm Calm - N/A   Overcast
6:02 AM 51.8 °F 51.8 °F 100% 30.25 in 4.0 mi Calm Calm - N/A   Overcast
6:07 AM 51.8 °F 51.8 °F 100% 30.25 in 1.8 mi Calm Calm - N/A   Overcast
6:10 AM 51.8 °F 51.8 °F 100% 30.25 in 1.2 mi WNW 3.5 mph - N/A   Overcast
6:18 AM 51.8 °F 51.8 °F 100% 30.25 in 1.0 mi NNW 3.5 mph - N/A   Overcast
6:27 AM 51.8 °F 51.8 °F 100% 30.25 in 0.8 mi NNW 5.8 mph - N/A   Mist
6:43 AM 51.8 °F 51.8 °F 100% 30.26 in 1.2 mi Calm Calm - N/A   Overcast
6:49 AM 51.8 °F 51.8 °F 100% 30.26 in 2.0 mi Calm Calm - N/A   Overcast
6:50 AM 52.0 °F 51.1 °F 97% 30.22 in 2.0 mi Calm Calm - N/A   Overcast
7:00 AM 51.8 °F 51.8 °F 100% 30.26 in 3.0 mi NNW 3.5 mph - N/A   Overcast
7:04 AM 51.8 °F 51.8 °F 100% 30.26 in 1.8 mi NW 3.5 mph - N/A   Overcast
7:09 AM 51.8 °F 51.8 °F 100% 30.26 in 1.5 mi NNW 4.6 mph - N/A   Overcast
7:15 AM 51.8 °F 51.8 °F 100% 30.26 in 3.0 mi NNW 3.5 mph - N/A   Overcast
7:54 AM 52.0 °F 51.1 °F 97% 30.24 in 7.0 mi NW 3.5 mph - N/A   Overcast
8:08 AM 51.8 °F 51.8 °F 100% 30.28 in 7.0 mi Calm Calm - N/A   Overcast
8:54 AM 53.1 °F 52.0 °F 96% 30.26 in 10.0 mi NW 3.5 mph - N/A   Overcast
9:08 AM 53.6 °F 51.8 °F 94% 30.29 in 10.0 mi NNW 4.6 mph - N/A   Overcast
9:44 AM 55.4 °F 53.6 °F 94% 30.29 in 10.0 mi North 4.6 mph - N/A   Partly Cloudy
9:54 AM 57.0 °F 54.0 °F 89% 30.26 in 10.0 mi NNW 5.8 mph - N/A   Partly Cloudy
10:54 AM 64.0 °F 55.0 °F 73% 30.25 in 10.0 mi NNW 4.6 mph - N/A   Clear
11:54 AM 68.0 °F 54.0 °F 61% 30.25 in 10.0 mi NNW 5.8 mph - N/A   Clear
12:54 PM 73.0 °F 51.1 °F 46% 30.22 in 10.0 mi North 5.8 mph - N/A   Clear
1:54 PM 73.0 °F 48.0 °F 41% 30.20 in 10.0 mi NW 4.6 mph - N/A   Scattered Clouds
2:54 PM 69.1 °F 52.0 °F 54% 30.19 in 10.0 mi SW 5.8 mph - N/A   Mostly Cloudy
3:54 PM 71.1 °F 53.1 °F 53% 30.17 in 10.0 mi West 6.9 mph - 0.00 in Rain Light Rain
4:54 PM 68.0 °F 52.0 °F 56% 30.18 in 10.0 mi NNW 8.1 mph - 0.00 in   Overcast
5:54 PM 69.1 °F 55.0 °F 61% 30.18 in 10.0 mi Variable 4.6 mph - 0.00 in   Overcast
6:54 PM 68.0 °F 54.0 °F 61% 30.19 in 10.0 mi Calm Calm - N/A   Overcast
7:54 PM 64.9 °F 55.0 °F 70% 30.20 in 10.0 mi Calm Calm - N/A   Scattered Clouds
8:54 PM 60.1 °F 54.0 °F 80% 30.22 in 10.0 mi WSW 3.5 mph - N/A   Overcast
9:54 PM 60.1 °F 54.0 °F 80% 30.22 in 10.0 mi Calm Calm - N/A   Partly Cloudy
10:54 PM 57.9 °F 54.0 °F 87% 30.23 in 10.0 mi Calm Calm - N/A   Clear
11:54 PM 55.0 °F 53.1 °F 93% 30.24 in 10.0 mi Calm Calm - N/A   Clear